Location: Unspecified
(42.9300°N, 71.1866°W)
Time: 17:06:05
(UTC-04:00)

Cosmos 2058 - Visible Passes

Search period start: 29 May 2016 00:00
Search period end: 08 June 2016 00:00
Orbit: 564 x 587 km, 82.5° (Epoch: 28 May)

Date Brightness Start Highest point End Pass type
(mag) Time Alt. Az. Time Alt. Az. Time Alt. Az.
29 May 2.8 01:54:35 84° WNW 01:54:35 84° WNW 01:58:45 10° N visible
30 May 5.5 00:22:01 11° E 00:22:01 11° E 00:22:54 10° ENE visible
30 May 3.0 01:58:15 61° W 01:58:15 61° W 02:02:23 10° N visible
31 May 5.2 00:25:40 14° E 00:25:40 14° E 00:27:42 10° NE visible
31 May 3.5 02:01:55 45° W 02:01:57 45° WNW 02:05:58 10° N visible
01 Jun 4.9 00:29:19 19° E 00:29:19 19° E 00:31:56 10° NE visible
01 Jun 3.9 02:05:34 33° W 02:05:41 33° WNW 02:09:29 10° N visible
02 Jun 4.5 00:32:58 25° E 00:32:58 25° E 00:35:58 10° NE visible
02 Jun 4.3 02:09:12 25° W 02:09:25 25° WNW 02:12:55 10° NNW visible
03 Jun 4.1 00:36:35 32° ENE 00:36:35 32° ENE 00:39:53 10° NNE visible
03 Jun 4.7 02:12:49 19° W 02:13:11 20° WNW 02:16:15 10° NNW visible
04 Jun 3.7 00:40:12 43° ENE 00:40:12 43° ENE 00:43:43 10° NNE visible
04 Jun 5.0 02:16:26 15° WNW 02:16:58 15° WNW 02:19:25 10° NNW visible
05 Jun 3.2 00:43:48 58° ENE 00:43:48 58° ENE 00:47:29 10° NNE visible
05 Jun 5.3 02:20:02 11° WNW 02:20:46 11° WNW 02:22:10 10° NW visible
06 Jun 3.0 00:47:23 74° NNE 00:47:23 74° NNE 00:51:12 10° N visible
07 Jun 3.0 00:50:57 69° NW 00:50:57 69° NW 00:54:51 10° N visible
07 Jun 5.2 23:18:16 12° E 23:18:16 12° E 23:19:41 10° ENE visible
